Location: Northcutt
(34.7304°N, 84.4305°W)
Time: 09:37:59
(UTC+00:00)

A-11 Canister half - Pass Details

Date: 10 October 2022
Orbit: 1524 x 1685 km, 47.3° (Epoch: 30 November)

Event Time Altitude Azimuth Distance (km) Brightness Sun altitude
Rises 03:21:39 0° 295° (WNW) 4,734 12.2 -50.1°
Reaches altitude 10° 03:25:22 10° 284° (WNW) 3,770 11.4 -50.7°
Enters shadow 03:29:42 22° 259° (WSW) 2,968 10.6 -51.4°
Maximum altitude 03:32:40 25° 233° (SW) 2,792 - -51.8°
Drops below altitude 10° 03:40:10 10° 182° (S) 3,858 - -53.0°
Sets 03:44:04 0° 170° (S) 4,866 - -53.5°
